Regional Weather Roundup
Issued by NWS Northern Indiana

Home | Current Version | Previous Version | Text Only | Print | Product List | Glossary On
Versions: 1 2 3 4 5 6 7 8 9 10 11 12 13 14 15 16 17 18 19 20 21 22 23 24 25 26 27 28 29 30 31 32 33 34 35 36 37 38 39 40 41 42 43 44 45 46 47 48 49 50
000
ASUS43 KIWX 280310
RWRIWX

KIWX WEATHER ROUNDUP
NATIONAL WEATHER SERVICE NORTHERN INDIANA
1000 PM EST THU NOV 27 2014

NOTE: "FAIR" INDICATES FEW OR NO CLOUDS BELOW 12,000 FEET WITH NO
SIGNIFICANT WEATHER AND/OR OBSTRUCTIONS TO VISIBILITY.

* THESE STATIONS ARE NOT UNDER NWS QUALITY CONTROL. THEY ALSO MAY NOT
  REPORT WEATHER SUCH AS PRECIPITATION OR FOG.

INZ001>027-280400-
NORTHERN INDIANA

CITY           SKY/WX    TMP DP  RH WIND       PRES   REMARKS
GARY*          CLOUDY    23  11  59 NW6       30.41R WCI  16
VALPARAISO     CLOUDY    21  13  71 W7        30.39R WCI  12
MICHIGAN CITY* CLOUDY    25  10  54 NW6       30.39R WCI  18
LAPORTE*       CLOUDY    25  15  64 W5        30.38R WCI  20
KNOX*          CLOUDY    23  15  71 W7        30.38S WCI  15
SOUTH BEND     MOCLDY    22  13  68 W8        30.36S WCI  12
GOSHEN         CLOUDY    23  18  81 W8        30.34S WCI  14
MONTICELLO*    FLURRIES  24  19  82 CALM      30.39S
LOGANSPORT*    CLOUDY    25  14  63 NW5       30.39S WCI  19
ROCHESTER*     FLURRIES  27  19  74 W8        30.38S WCI  18
WARSAW*        CLEAR     21  18  86 W3        30.35F
ANGOLA*        CLOUDY    23  16  74 N5        30.32S WCI  17
FORT WAYNE     CLOUDY    24  19  81 W13       30.36R WCI  12
HUNTINGTON*    MOCLDY    24  18  78 W5        30.36S WCI  18
PERU/GRISSOM   CLOUDY    25  19  78 NW8       30.37S WCI  16
MARION*          N/A     24  20  82 W9        30.38S WCI  15

$$
INZ028>050-280400-
CENTRAL INDIANA

CITY           SKY/WX    TMP DP  RH WIND       PRES   REMARKS
LAFAYETTE      CLOUDY    23  17  78 W9        30.41S WCI  13
KOKOMO*        CLOUDY    25  14  63 NW9       30.38F WCI  15
MUNCIE*        CLOUDY    25  17  72 MISG      30.37R
INDIANAPOLIS   FLURRIES  25  19  78 NW6       30.39S WCI  18

$$
MIZ043>046-050>051-056>058-064>065-071>073-077>080-280400-
SOUTHWEST LOWER MICHIGAN

CITY           SKY/WX    TMP DP  RH WIND       PRES   REMARKS
BATTLE CREEK   CLOUDY    23  14  68 N6        30.33R WCI  16
BENTON HARBOR  CLOUDY    25  12  58 NW7       30.36S WCI  17
COLDWATER*     CLOUDY    25  17  72 NW8       30.32S WCI  16
HILLSDALE*     CLOUDY    23  16  74 NW6       30.29S WCI  16
HOLLAND        CLOUDY    22  16  78 NE5       30.36S WCI  16
GRAND RAPIDS   FLURRIES  20  11  68 NW7       30.34S WCI  11
KALAMAZOO      FLURRIES  22  16  78 N8        30.34S WCI  12
STURGIS*       FLURRIES  21  19  93 CALM      30.33S
THREE RIVERS*  FLURRIES  24  19  82 NW5       30.34F WCI  18

$$
OHZ001>008-015>018-024>025-280400-
NORTHWEST OHIO

CITY           SKY/WX    TMP DP  RH WIND       PRES   REMARKS
WAUSEON*       CLOUDY    27  18  69 NW13      30.32R WCI  16
DEFIANCE       CLOUDY    27  18  69 NW10      30.34R WCI  17
FINDLAY        CLOUDY    29  23  78 W14       30.30R WCI  18
TOLEDO EXPRESS CLOUDY    27  21  78 NW13      30.31R WCI  16
TOLEDO METCALF CLOUDY    28  22  78 NW9       30.31R WCI  19
LIMA           FLURRIES  28  22  78 W15       30.32R WCI  16

$$
AND FOR LAKE MICHIGAN COASTAL AND OPEN LAKE BUOY OBSERVATIONS

STATION/POSITION TEMP    WIND        PRES    VSBY  WAVE
                 AIR SEA DIR/SP/G                  HT/PER
                 (F)     (DEG/KT/KT) (MB)    (MI)  (FT/S)
CALUMET HARBOR    20     280/  4/  8 1028.3R
MICHIGAN CITY     24     260/ 11/ 16   N/A
SAINT JOSEPH      27     280/ 12/ 15 1028.4R
SOUTH LAKE BUOY   23 42  290/ 10/ 14 1029.5S         5/ 7

$$
&&



USA.gov is the U.S. government's official web portal to all federal, state and local government web resources and services.